| time (UTC) | temp F | wind direction | speed knots | gust knots | rain 1hr in | rain 24hr in | rain mn in | humidity % | barometer mb |
| 20260905134601 | 53 | 237 | 0.0 | 0.0 | 0.00 | 0.01 | 0.00 | 97 | 1016.3 |
| 20260905133038 | 54 | 236 | 0.0 | 0.0 | 0.00 | 0.01 | 0.00 | 97 | 1016.3 |
| 20260905131540 | 53 | 237 | 0.0 | 0.0 | 0.00 | 0.01 | 0.00 | 97 | 1016.3 |
| 20260905130027 | 53 | 237 | 0.0 | 0.0 | 0.00 | 0.01 | 0.00 | 97 | 1016.2 |
| 20260905124518 | 53 | 237 | 0.0 | 0.0 | 0.00 | 0.01 | 0.00 | 97 | 1016.1 |
| 20260905123106 | 53 | 236 | 0.0 | 0.0 | 0.00 | 0.01 | 0.00 | 97 | 1016.0 |
| 20260905121600 | 53 | 237 | 0.0 | 0.0 | 0.00 | 0.01 | 0.00 | 97 | 1016.0 |
| 20260905120041 | 53 | 236 | 0.0 | 0.0 | 0.00 | 0.01 | 0.00 | 96 | 1015.9 |
| 20260905114545 | 53 | 237 | 0.0 | 0.0 | 0.00 | 0.01 | 0.00 | 96 | 1015.9 |
| 20260905113022 | 53 | 237 | 0.0 | 0.0 | 0.00 | 0.01 | 0.00 | 96 | 1015.8 |
| 20260905111531 | 54 | 237 | 0.0 | 0.0 | 0.00 | 0.01 | 0.00 | 96 | 1015.8 |
| 20260905110003 | 54 | 237 | 0.0 | 0.0 | 0.00 | 0.01 | 0.00 | 96 | 1015.8 |
| 20260905104503 | 54 | 237 | 0.0 | 0.0 | 0.00 | 0.01 | 0.00 | 96 | 1015.8 |
| 20260905103103 | 55 | 237 | 0.0 | 0.0 | 0.00 | 0.01 | 0.00 | 96 | 1016.0 |
| 20260905101545 | 54 | 237 | 0.0 | 0.0 | 0.00 | 0.01 | 0.00 | 96 | 1016.0 |
| 20260905100046 | 54 | 237 | 0.0 | 0.0 | 0.00 | 0.01 | 0.00 | 96 | 1016.1 |
| 20260905094529 | 54 | 236 | 0.0 | 0.0 | 0.00 | 0.01 | 0.00 | 96 | 1016.1 |
| 20260905093028 | 54 | 237 | 0.0 | 0.0 | 0.00 | 0.01 | 0.00 | 96 | 1016.0 |
| 20260905091532 | 54 | 236 | 0.0 | 0.0 | 0.00 | 0.01 | 0.00 | 96 | 1015.8 |
| 20260905090027 | 54 | 237 | 0.0 | 0.0 | 0.00 | 0.01 | 0.00 | 96 | 1015.7 |
| 20260905084525 | 54 | 237 | 0.0 | 0.0 | 0.00 | 0.01 | 0.00 | 96 | 1015.7 |
| 20260905081525 | 54 | 237 | 0.0 | 0.0 | 0.00 | 0.01 | 0.00 | 96 | 1015.6 |
| 20260905080024 | 54 | 237 | 0.0 | 0.0 | 0.00 | 0.01 | 0.00 | 96 | 1015.5 |
| 20260905074525 | 54 | 237 | 0.0 | 0.0 | 0.00 | 0.01 | 0.00 | 96 | 1015.4 |
| 20260905071522 | 54 | 237 | 0.0 | 0.0 | 0.00 | 0.01 | 0.00 | 96 | 1015.3 |
| 20260905070021 | 54 | 237 | 0.0 | 0.0 | 0.00 | 0.01 | 0.00 | 95 | 1015.3 |
| 20260905064522 | 54 | 237 | 0.0 | 0.0 | 0.00 | 0.01 | 0.00 | 95 | 1015.2 |
| 20260905061558 | 54 | 236 | 0.0 | 0.0 | 0.00 | 0.01 | 0.00 | 95 | 1014.9 |
| 20260905060056 | 54 | 236 | 0.0 | 0.0 | 0.00 | 0.01 | 0.00 | 94 | 1014.8 |
| 20260905054539 | 55 | 237 | 0.0 | 0.0 | 0.00 | 0.01 | 0.00 | 94 | 1014.9 |
| 20260905053036 | 55 | 237 | 0.0 | 0.0 | 0.00 | 0.01 | 0.00 | 94 | 1014.8 |
| 20260905051520 | 55 | 236 | 0.0 | 0.0 | 0.00 | 0.01 | 0.00 | 93 | 1014.8 |
| 20260905050016 | 55 | 237 | 0.0 | 0.0 | 0.00 | 0.01 | 0.00 | 93 | 1014.8 |
| 20260905044559 | 55 | 237 | 0.0 | 0.0 | 0.00 | 0.01 | 0.00 | 93 | 1014.9 |
| 20260905043057 | 56 | 236 | 0.0 | 0.0 | 0.00 | 0.01 | 0.00 | 92 | 1014.9 |
| 20260905041548 | 56 | 237 | 0.0 | 0.0 | 0.00 | 0.01 | 0.00 | 91 | 1014.8 |
| 20260905040035 | 57 | 237 | 0.0 | 0.0 | 0.00 | 0.01 | 0.00 | 90 | 1014.7 |
| 20260905034514 | 57 | 237 | 0.0 | 0.0 | 0.00 | 0.01 | 0.00 | 88 | 1014.4 |
| 20260905033011 | 58 | 237 | 0.0 | 0.0 | 0.00 | 0.01 | 0.00 | 86 | 1014.2 |
| 20260905031551 | 59 | 237 | 0.0 | 0.0 | 0.00 | 0.01 | 0.00 | 84 | 1014.1 |
| 20260905030047 | 60 | 237 | 0.0 | 0.0 | 0.00 | 0.01 | 0.00 | 82 | 1013.8 |
| 20260905024529 | 61 | 237 | 0.0 | 0.0 | 0.00 | 0.01 | 0.00 | 81 | 1013.8 |
| 20260905023023 | 62 | 237 | 0.0 | 0.0 | 0.00 | 0.01 | 0.00 | 79 | 1013.9 |
| 20260905021502 | 63 | 237 | 0.0 | 0.0 | 0.00 | 0.01 | 0.00 | 77 | 1013.9 |
| 20260905020100 | 63 | 237 | 0.0 | 0.0 | 0.00 | 0.01 | 0.00 | 76 | 1013.6 |
| 20260905014541 | 63 | 237 | 0.0 | 0.0 | 0.00 | 0.01 | 0.01 | 77 | 1013.6 |
| 20260905013047 | 63 | 237 | 0.0 | 0.0 | 0.00 | 0.01 | 0.01 | 75 | 1013.5 |
| 20260905011520 | 64 | 237 | 0.0 | 0.0 | 0.00 | 0.01 | 0.01 | 75 | 1013.3 |
| 20260905010019 | 64 | 237 | 0.0 | 2.6 | 0.00 | 0.01 | 0.01 | 76 | 1013.2 |
| 20260905004502 | 64 | 190 | 0.0 | 4.3 | 0.00 | 0.01 | 0.01 | 74 | 1013.1 |
| 20260905003002 | 63 | 186 | 0.0 | 0.0 | 0.00 | 0.01 | 0.01 | 77 | 1013.2 |
| 20260905001554 | 64 | 186 | 0.0 | 1.7 | 0.00 | 0.01 | 0.01 | 72 | 1013.2 |
| 20260905000049 | 65 | 177 | 0.0 | 7.0 | 0.00 | 0.01 | 0.01 | 65 | 1013.2 |
| 20260904234524 | 65 | 159 | 0.9 | 6.1 | 0.00 | 0.02 | 0.01 | 64 | 1013.1 |
| 20260904233024 | 65 | 172 | 2.6 | 7.0 | 0.00 | 0.02 | 0.01 | 65 | 1013.0 |
| 20260904231504 | 66 | 188 | 3.5 | 8.7 | 0.00 | 0.02 | 0.01 | 64 | 1012.9 |
| 20260904230002 | 66 | 196 | 1.7 | 9.6 | 0.00 | 0.02 | 0.01 | 63 | 1012.7 |
| 20260904224543 | 67 | 184 | 2.6 | 9.6 | 0.01 | 0.02 | 0.01 | 61 | 1012.5 |
| 20260904223043 | 68 | 148 | 0.0 | 10.4 | 0.01 | 0.02 | 0.01 | 60 | 1012.5 |
| 20260904221525 | 69 | 220 | 4.3 | 9.6 | 0.01 | 0.02 | 0.01 | 57 | 1012.5 |
| 20260904220025 | 69 | 173 | 2.6 | 8.7 | 0.01 | 0.02 | 0.01 | 58 | 1012.5 |
| 20260904214504 | 68 | 193 | 2.6 | 7.8 | 0.00 | 0.01 | 0.00 | 62 | 1012.5 |
| 20260904213101 | 66 | 186 | 5.2 | 9.6 | 0.00 | 0.01 | 0.00 | 67 | 1012.5 |
| 20260904211544 | 66 | 68 | 0.0 | 3.5 | 0.00 | 0.01 | 0.00 | 70 | 1012.2 |
| 20260904210040 | 66 | 63 | 0.0 | 4.3 | 0.00 | 0.01 | 0.00 | 70 | 1011.9 |
| 20260904204520 | 65 | 71 | 0.0 | 2.6 | 0.00 | 0.01 | 0.00 | 72 | 1012.0 |
| 20260904203029 | 65 | 71 | 0.0 | 3.5 | 0.00 | 0.01 | 0.00 | 74 | 1012.0 |
| 20260904201600 | 64 | 51 | 0.0 | 4.3 | 0.00 | 0.01 | 0.00 | 73 | 1012.0 |
| 20260904200105 | 63 | 52 | 0.9 | 4.3 | 0.00 | 0.01 | 0.00 | 77 | 1012.2 |
| 20260904194538 | 63 | 53 | 0.9 | 4.3 | 0.00 | 0.01 | 0.00 | 80 | 1012.3 |
| 20260904193036 | 63 | 42 | 0.9 | 5.2 | 0.00 | 0.01 | 0.00 | 80 | 1012.4 |
| 20260904191517 | 62 | 42 | 0.9 | 5.2 | 0.00 | 0.01 | 0.00 | 82 | 1012.5 |
| 20260904190016 | 62 | 51 | 1.7 | 6.1 | 0.00 | 0.01 | 0.00 | 82 | 1012.6 |
| 20260904184613 | 62 | 48 | 2.6 | 4.3 | 0.00 | 0.02 | 0.00 | 83 | 1012.4 |
| 20260904183053 | 61 | 46 | 0.9 | 3.5 | 0.00 | 0.02 | 0.00 | 84 | 1012.3 |
| 20260904181537 | 60 | 45 | 0.9 | 6.1 | 0.00 | 0.02 | 0.00 | 87 | 1012.3 |
| 20260904180045 | 60 | 74 | 0.9 | 7.0 | 0.00 | 0.02 | 0.00 | 87 | 1012.2 |
| 20260904174514 | 59 | 80 | 0.0 | 0.0 | 0.00 | 0.02 | 0.00 | 89 | 1012.2 |
| 20260904173018 | 58 | 80 | 0.0 | 4.3 | 0.00 | 0.02 | 0.00 | 89 | 1012.1 |
| 20260904171617 | 58 | 80 | 0.0 | 3.5 | 0.00 | 0.02 | 0.00 | 89 | 1012.1 |
| 20260904170052 | 58 | 80 | 1.7 | 6.1 | 0.00 | 0.02 | 0.00 | 88 | 1011.9 |
| 20260904164532 | 58 | 84 | 0.0 | 2.6 | 0.00 | 0.02 | 0.00 | 89 | 1011.8 |
| 20260904163032 | 57 | 84 | 0.9 | 5.2 | 0.00 | 0.02 | 0.00 | 90 | 1011.8 |
| 20260904161515 | 57 | 85 | 0.0 | 0.0 | 0.00 | 0.02 | 0.00 | 92 | 1011.7 |
| 20260904160017 | 56 | 85 | 0.9 | 5.2 | 0.00 | 0.02 | 0.00 | 93 | 1011.7 |
| 20260904154556 | 56 | 86 | 0.0 | 4.3 | 0.00 | 0.03 | 0.00 | 94 | 1011.7 |
| 20260904153059 | 55 | 84 | 0.0 | 5.2 | 0.00 | 0.03 | 0.00 | 94 | 1011.7 |
| 20260904151535 | 54 | 84 | 0.0 | 0.0 | 0.00 | 0.03 | 0.00 | 94 | 1011.5 |
| 20260904150034 | 54 | 84 | 0.0 | 0.9 | 0.00 | 0.03 | 0.00 | 94 | 1011.2 |
| 20260904144515 | 54 | 84 | 0.0 | 0.0 | 0.00 | 0.03 | 0.00 | 94 | 1011.0 |
| 20260904143016 | 54 | 84 | 0.0 | 0.0 | 0.00 | 0.03 | 0.00 | 94 | 1010.9 |
| 20260904141555 | 54 | 84 | 0.0 | 0.0 | 0.00 | 0.03 | 0.00 | 95 | 1010.8 |
| 20260904140054 | 54 | 84 | 0.0 | 0.0 | 0.00 | 0.03 | 0.00 | 94 | 1010.7 |